When you browse on this site, cookies collect data to enhance your experience and personalize the content and advertising you see.
Visit our Privacy Policy to learn more. By continuing to use the site, you agree to this use of cookies and data.
  • In Österreich
  • Länderverzeichnis
  • Für 7 Tage
  • Wassertemperatur
  • Wetterkarte
  • News
  • Widgets
  • user-avatar
    Anmelden

    Stündliche Wetter Drebsk

    Heute, 20 August, Dienstag

    Zeit Temperatur Niederschläge Wind Luftdruck Luftfeuchtigkeit
    00:00 +20°C° 1 mm 2 m/S 751 mmHg 85%
    01:00 +20°C° 1 mm 2 m/S 751 mmHg 88%
    02:00 +20°C° 0 mm 1 m/S 752 mmHg 90%
    03:00 +20°C° 0.3 mm 1 m/S 752 mmHg 91%
    04:00 +20°C° 0.3 mm 1 m/S 752 mmHg 91%
    05:00 +20°C° 0.3 mm 1 m/S 752 mmHg 91%
    06:00 +21°C° 0.1 mm 1 m/S 752 mmHg 89%
    07:00 +22°C° 0.1 mm 1 m/S 753 mmHg 87%
    08:00 +23°C° 0 mm 1 m/S 753 mmHg 87%
    09:00 +25°C° 0.2 mm 1 m/S 753 mmHg 81%
    10:00 +26°C° 0.2 mm 1 m/S 753 mmHg 75%
    11:00 +28°C° 0.2 mm 1 m/S 753 mmHg 70%
    12:00 +29°C° 0 mm 1 m/S 753 mmHg 67%
    13:00 +29°C° 0 mm 1 m/S 753 mmHg 64%
    14:00 +30°C° 0 mm 2 m/S 754 mmHg 62%
    15:00 +29°C° 0.5 mm 2 m/S 754 mmHg 66%
    16:00 +29°C° 0.5 mm 2 m/S 754 mmHg 71%
    17:00 +28°C° 0.5 mm 2 m/S 753 mmHg 75%
    18:00 +27°C° 0.7 mm 2 m/S 754 mmHg 80%
    19:00 +25°C° 0.7 mm 2 m/S 754 mmHg 85%
    20:00 +24°C° 0.7 mm 2 m/S 754 mmHg 90%
    21:00 +23°C° 0.4 mm 2 m/S 754 mmHg 91%
    22:00 +23°C° 0.4 mm 2 m/S 754 mmHg 93%
    23:00 +22°C° 0.4 mm 1 m/S 754 mmHg 94%

    Morgen, 21 August, Mittwoch

    Zeit Temperatur Niederschläge Wind Luftdruck Luftfeuchtigkeit
    00:00 +22°C° 0.6 mm 1 m/S 754 mmHg 93%
    01:00 +22°C° 0.6 mm 1 m/S 754 mmHg 93%
    02:00 +22°C° 0.6 mm 1 m/S 754 mmHg 93%
    03:00 +20°C° 0 mm 2 m/S 753 mmHg 92%
    04:00 +20°C° 0 mm 2 m/S 753 mmHg 91%
    05:00 +19°C° 0 mm 3 m/S 753 mmHg 90%
    06:00 +20°C° 0 mm 3 m/S 753 mmHg 86%
    07:00 +21°C° 0 mm 3 m/S 753 mmHg 82%
    08:00 +22°C° 0 mm 3 m/S 753 mmHg 77%
    09:00 +25°C° 0 mm 4 m/S 753 mmHg 70%
    10:00 +26°C° 0 mm 4 m/S 753 mmHg 63%
    11:00 +28°C° 0 mm 4 m/S 753 mmHg 56%
    12:00 +29°C° 0 mm 4 m/S 752 mmHg 54%
    13:00 +30°C° 0 mm 4 m/S 752 mmHg 51%
    14:00 +32°C° 0 mm 4 m/S 752 mmHg 48%
    15:00 +32°C° 0 mm 4 m/S 752 mmHg 54%
    16:00 +30°C° 0 mm 4 m/S 752 mmHg 60%
    17:00 +29°C° 0 mm 3 m/S 752 mmHg 65%
    18:00 +26°C° 0.3 mm 4 m/S 752 mmHg 74%
    19:00 +23°C° 0.3 mm 5 m/S 753 mmHg 82%
    20:00 +20°C° 0.3 mm 5 m/S 753 mmHg 91%
    21:00 +19°C° 0.2 mm 5 m/S 754 mmHg 91%
    22:00 +17°C° 0.2 mm 5 m/S 754 mmHg 91%
    23:00 +16°C° 0.2 mm 5 m/S 755 mmHg 90%

    übermorgen, 22 August, Donnerstag

    Zeit Temperatur Niederschläge Wind Luftdruck Luftfeuchtigkeit
    00:00 +15°C° 0.1 mm 5 m/S 755 mmHg 89%
    01:00 +15°C° 0.1 mm 5 m/S 755 mmHg 88%
    02:00 +15°C° 0.1 mm 5 m/S 756 mmHg 87%
    03:00 +14°C° 0 mm 4 m/S 756 mmHg 88%
    04:00 +14°C° 0 mm 4 m/S 756 mmHg 88%
    05:00 +14°C° 0 mm 4 m/S 756 mmHg 89%
    06:00 +14°C° 0 mm 4 m/S 757 mmHg 86%
    07:00 +15°C° 0 mm 4 m/S 757 mmHg 84%
    08:00 +15°C° 0 mm 5 m/S 757 mmHg 82%
    09:00 +17°C° 0 mm 4 m/S 758 mmHg 76%
    10:00 +19°C° 0 mm 4 m/S 758 mmHg 71%
    11:00 +20°C° 0 mm 4 m/S 758 mmHg 66%
    12:00 +21°C° 0 mm 4 m/S 758 mmHg 63%
    13:00 +22°C° 0 mm 4 m/S 758 mmHg 60%
    14:00 +23°C° 0 mm 4 m/S 758 mmHg 58%
    15:00 +22°C° 0 mm 4 m/S 757 mmHg 60%
    16:00 +22°C° 0 mm 3 m/S 757 mmHg 63%
    17:00 +22°C° 0 mm 3 m/S 757 mmHg 66%
    18:00 +20°C° 0 mm 3 m/S 757 mmHg 70%
    19:00 +19°C° 0 mm 3 m/S 757 mmHg 74%
    20:00 +17°C° 0 mm 3 m/S 758 mmHg 79%
    21:00 +16°C° 0 mm 3 m/S 758 mmHg 80%
    22:00 +14°C° 0 mm 3 m/S 758 mmHg 81%
    23:00 +14°C° 0 mm 3 m/S 758 mmHg 82%

    23 August, Freitag

    Zeit Temperatur Niederschläge Wind Luftdruck Luftfeuchtigkeit
    00:00 +14°C° 0 mm 2 m/S 758 mmHg 83%
    01:00 +14°C° 0 mm 2 m/S 758 mmHg 84%
    02:00 +13°C° 0 mm 2 m/S 758 mmHg 85%
    03:00 +13°C° 0 mm 2 m/S 758 mmHg 87%
    04:00 +12°C° 0 mm 2 m/S 758 mmHg 88%
    05:00 +12°C° 0 mm 2 m/S 758 mmHg 89%
    06:00 +13°C° 0 mm 2 m/S 758 mmHg 84%
    07:00 +15°C° 0 mm 2 m/S 759 mmHg 79%
    08:00 +17°C° 0 mm 2 m/S 759 mmHg 74%
    09:00 +18°C° 0 mm 2 m/S 759 mmHg 67%
    10:00 +20°C° 0 mm 2 m/S 759 mmHg 60%
    11:00 +21°C° 0 mm 2 m/S 759 mmHg 54%
    12:00 +23°C° 0 mm 2 m/S 759 mmHg 52%
    13:00 +22°C° 0 mm 3 m/S 759 mmHg 50%
    14:00 +24°C° 0 mm 3 m/S 758 mmHg 48%
    15:00 +24°C° 0 mm 3 m/S 758 mmHg 52%
    16:00 +23°C° 0 mm 2 m/S 758 mmHg 55%
    17:00 +23°C° 0 mm 2 m/S 758 mmHg 59%
    18:00 +20°C° 0 mm 2 m/S 758 mmHg 63%
    19:00 +18°C° 0 mm 2 m/S 758 mmHg 67%
    20:00 +16°C° 0 mm 2 m/S 758 mmHg 72%
    21:00 +15°C° 0 mm 2 m/S 758 mmHg 74%
    22:00 +15°C° 0 mm 2 m/S 758 mmHg 76%
    23:00 +14°C° 0 mm 2 m/S 758 mmHg 79%

    24 August, Samstag

    Zeit Temperatur Niederschläge Wind Luftdruck Luftfeuchtigkeit
    00:00 +14°C° 0 mm 1 m/S 758 mmHg 81%
    01:00 +13°C° 0 mm 1 m/S 758 mmHg 84%
    02:00 +13°C° 0 mm 1 m/S 758 mmHg 87%
    03:00 +13°C° 0 mm 1 m/S 758 mmHg 88%
    04:00 +12°C° 0 mm 1 m/S 758 mmHg 88%
    05:00 +12°C° 0 mm 1 m/S 758 mmHg 89%
    06:00 +14°C° 0 mm 1 m/S 758 mmHg 84%
    07:00 +16°C° 0 mm 1 m/S 758 mmHg 79%
    08:00 +17°C° 0 mm 2 m/S 758 mmHg 74%
    09:00 +19°C° 0 mm 2 m/S 758 mmHg 68%
    10:00 +21°C° 0 mm 2 m/S 758 mmHg 62%
    11:00 +23°C° 0 mm 2 m/S 758 mmHg 56%
    12:00 +24°C° 0 mm 2 m/S 758 mmHg 53%
    13:00 +24°C° 0 mm 2 m/S 757 mmHg 49%
    14:00 +25°C° 0 mm 1 m/S 757 mmHg 46%
    15:00 +25°C° 0 mm 1 m/S 756 mmHg 49%
    16:00 +25°C° 0 mm 1 m/S 756 mmHg 52%
    17:00 +25°C° 0 mm 1 m/S 756 mmHg 54%
    18:00 +23°C° 0 mm 1 m/S 755 mmHg 59%
    19:00 +20°C° 0 mm 1 m/S 755 mmHg 63%
    20:00 +18°C° 0 mm 1 m/S 755 mmHg 67%
    21:00 +18°C° 0 mm 1 m/S 755 mmHg 69%
    22:00 +16°C° 0 mm 1 m/S 755 mmHg 71%
    23:00 +15°C° 0 mm 1 m/S 755 mmHg 73%

    25 August, Sonntag

    Zeit Temperatur Niederschläge Wind Luftdruck Luftfeuchtigkeit
    00:00 +15°C° 0 mm 1 m/S 755 mmHg 73%
    01:00 +15°C° 0 mm 1 m/S 755 mmHg 74%
    02:00 +14°C° 0 mm 1 m/S 755 mmHg 74%
    03:00 +14°C° 0 mm 1 m/S 755 mmHg 74%
    04:00 +14°C° 0 mm 1 m/S 755 mmHg 75%
    05:00 +14°C° 0 mm 1 m/S 755 mmHg 75%
    06:00 +15°C° 0 mm 1 m/S 755 mmHg 72%
    07:00 +18°C° 0 mm 1 m/S 755 mmHg 69%
    08:00 +19°C° 0 mm 1 m/S 755 mmHg 66%
    09:00 +21°C° 0 mm 1 m/S 755 mmHg 62%
    10:00 +22°C° 0 mm 1 m/S 755 mmHg 58%
    11:00 +24°C° 0 mm 1 m/S 755 mmHg 53%
    12:00 +25°C° 0 mm 1 m/S 755 mmHg 50%
    13:00 +26°C° 0 mm 1 m/S 755 mmHg 48%
    14:00 +26°C° 0 mm 1 m/S 755 mmHg 45%
    15:00 +26°C° 0 mm 1 m/S 755 mmHg 49%
    16:00 +26°C° 0 mm 1 m/S 755 mmHg 52%
    17:00 +25°C° 0 mm 2 m/S 755 mmHg 55%
    18:00 +23°C° 0 mm 2 m/S 755 mmHg 61%
    19:00 +20°C° 0 mm 2 m/S 755 mmHg 66%
    20:00 +18°C° 0 mm 2 m/S 755 mmHg 71%
    21:00 +18°C° 0 mm 2 m/S 755 mmHg 73%
    22:00 +17°C° 0 mm 2 m/S 755 mmHg 74%
    23:00 +16°C° 0 mm 2 m/S 755 mmHg 76%
    Mehr zeigen